Weather in Ushakovskoye

Russia / Chukotka Autonomous Okrug     70°58′53″N   178°28′50″W
temp.,
°C
wind,
m/s
gust,
m/s
humid.,
%
clouds,
%
prec.,
mm/h
press.,
hPa
HPBL,
m
17 august, wed
wed1700:00+1w128031 0.0 102025
03:00+1wnw128178 0.0 101914
06:00+2n11775 0.0 101997
09:00+3se02694 0.0 1018256
12:00+4ese13695 0.0 1017439
15:00+4e237321 0.0 1016385
18:00+3e238044 0.0 1017255
21:00+2ene238576 0.0 1017220
18 august, thu
thu1800:00+2ene349094 0.0 1017244
03:00+1ene348594 0.0 1017393
06:00+1ene458097 0.0 1018537
09:00+2ene467480 0.0 1018606
12:00+3e466850 0.0 1018558
15:00+3ene56675 0.0 1018514
18:00+2ene56725 0.0 1018418
21:00+1nne34795 0.0 1019145
19 august, fri
fri1900:000nne34885 0.0 1020139
03:000nne359152 0.0 1020244
06:00+1ne558384 0.0 1021471
09:00+2ne458081 0.0 1021369
12:00+3ene457348 0.0 1021366
15:00+3e45759 0.0 1021383
18:00+3e44779 0.0 1021311
21:00+1ene348445 0.0 1022332
20 august, sat
sat2000:000e338759 0.0 1022246
03:000e338973 0.0 1022310
06:000e338565 0.0 1022342
09:00+1ese4481100 0.0 1022411
12:00+2ese3481100 0.0 1021394
15:00+2ese3482100 0.0 1022368
18:00+2e3486100 0.0 1022355
21:00+1e3490100 0.0 1023225
21 august, sun
sun2100:00+1ene3489100 0.0 1023209
03:00+1e339065 0.0 102496
06:00+2ne23888 0.0 1025117
09:00+4e357840 0.0 1026262
12:00+4e358273 0.0 1026267
15:00+4e358013 0.0 1026331
18:00+3ese458859 0.0 1027271
21:00+1e458996 0.1 1028435